EW5975 Weather Reports


Display with metric or nautical units.
time (UTC)temp
F
wind
direction
speed
MPH
gust
MPH
rain 1hr
in
rain 24hr
in
rain mn
in
humidity
%
barometer
mb
20260510231016 56 0.0 0.0 0.00 0.12 0.00 91 1011.3
20260510230018 56 0.0 0.0 0.00 0.12 0.00 91 1011.3
20260510225016 57 0.0 0.0 0.00 0.12 0.00 91 1011.4
20260510224036 57 0.0 0.0 0.00 0.12 0.00 91 1011.5
20260510223036 57 0.0 0.0 0.00 0.12 0.00 91 1011.5
20260510222016 57 0.0 0.0 0.00 0.12 0.00 91 1011.7
20260510221016 57 0.0 0.0 0.00 0.12 0.00 91 1011.6
20260510220016 58 0.0 0.0 0.00 0.12 0.12 91 1011.6
20260510215016 58 0.0 0.0 0.00 0.12 0.12 91 1011.6
20260510214016 58 0.0 0.0 0.00 0.12 0.12 91 1011.7
20260510213016 58 0.0 0.0 0.00 0.12 0.12 91 1011.7
20260510212016 58 0.0 0.0 0.00 0.12 0.12 91 1011.7
20260510211017 58 0.0 0.0 0.00 0.12 0.12 91 1011.7
20260510210016 58 0.0 0.0 0.00 0.12 0.12 91 1011.8
20260510205016 58 0.0 0.0 0.00 0.12 0.12 91 1011.8
20260510204016 58 0.0 0.0 0.00 0.12 0.12 91 1011.8
20260510203016 58 0.0 0.0 0.00 0.12 0.12 91 1011.9
20260510202016 58 0.0 0.0 0.00 0.12 0.12 90 1011.9
20260510201016 58 0.0 0.0 0.00 0.12 0.12 90 1012.0
20260510200016 58 0.0 0.0 0.00 0.12 0.12 90 1012.0
20260510195058 58 0.0 0.0 0.00 0.12 0.12 90 1012.1
20260510194016 59 0.0 0.0 0.00 0.12 0.12 90 1012.0
20260510193057 59 0.0 0.0 0.00 0.12 0.12 90 1012.0
20260510192056 59 0.0 0.0 0.00 0.12 0.12 90 1011.7
20260510191016 59 0.0 0.0 0.00 0.12 0.12 90 1011.6
20260510190016 59 0.0 0.0 0.00 0.12 0.12 90 1011.5
20260510185016 59 0.0 0.0 0.00 0.12 0.12 90 1011.3
20260510184016 59 0.0 0.0 0.00 0.12 0.12 89 1011.3
20260510183016 59 0.0 0.0 0.00 0.12 0.12 89 1011.2
20260510182016 60 0.0 0.0 0.00 0.12 0.12 89 1011.0
20260510181016 60 0.0 0.0 0.00 0.12 0.12 89 1011.0
20260510180016 60 0.0 0.0 0.00 0.12 0.12 89 1010.9
20260510175016 60 0.0 0.0 0.00 0.12 0.12 89 1011.0
20260510174016 60 0.0 0.0 0.00 0.12 0.12 89 1010.8
20260510173017 60 0.0 0.0 0.00 0.12 0.12 89 1010.8
20260510172037 60 0.0 0.0 0.00 0.12 0.12 89 1010.8
20260510171016 60 0.0 0.0 0.00 0.12 0.12 89 1010.8
20260510170015 60 0.0 0.0 0.00 0.12 0.12 89 1010.8
20260510165015 60 0.0 0.0 0.00 0.12 0.12 89 1010.9
20260510164016 60 0.0 0.0 0.00 0.12 0.12 89 1010.9
20260510163017 61 0.0 0.0 0.00 0.12 0.12 88 1011.0
20260510162017 61 0.0 0.0 0.00 0.12 0.12 89 1010.9
20260510161017 61 0.0 0.0 0.00 0.12 0.12 88 1011.0
20260510160018 61 0.0 0.0 0.00 0.12 0.12 88 1011.2
20260510155016 61 0.0 0.0 0.00 0.12 0.12 88 1011.1
20260510154140 61 0.0 0.0 0.01 0.12 0.12 88 1011.2
20260510153017 61 0.0 0.0 0.01 0.12 0.12 88 1011.3
20260510152017 61 0.0 0.0 0.02 0.12 0.12 88 1011.4
20260510151017 61 0.0 0.0 0.05 0.12 0.12 87 1011.4
20260510150017 61 0.0 0.0 0.06 0.12 0.12 87 1011.6
20260510145017 61 0.0 1.0 0.09 0.12 0.12 86 1011.7
20260510144017 61 0.0 0.0 0.09 0.11 0.11 85 1011.8
20260510143017 61 0.0 1.0 0.11 0.11 0.11 84 1011.8
20260510142037 62 225 1.0 3.0 0.10 0.10 0.10 84 1012.0
20260510141019 63 203 1.0 2.0 0.07 0.07 0.07 83 1012.0
20260510140017 63 0.0 1.0 0.06 0.06 0.06 82 1012.0
20260510135017 63 0.0 0.0 0.02 0.02 0.02 81 1012.1
20260510134025 64 0.0 1.0 0.02 0.02 0.02 79 1012.1
20260510133021 64 0.0 1.0 0.00 0.00 0.00 75 1012.0
20260510132031 64 225 1.0 4.0 0.00 0.00 0.00 73 1012.1
20260510131019 64 180 1.0 3.0 0.00 0.00 0.00 73 1011.9
20260510130031 64 203 1.0 4.0 0.00 0.00 0.00 73 1012.0
20260510125049 64 0.0 2.0 0.00 0.00 0.00 74 1012.1
20260510124022 64 203 1.0 2.0 0.00 0.00 0.00 76 1012.1
20260510123017 64 113 1.0 4.0 0.00 0.00 0.00 77 1012.0
20260510122017 64 0.0 2.0 0.00 0.00 0.00 78 1011.9
20260510121017 64 203 1.0 3.0 0.00 0.00 0.00 77 1012.2
20260510120016 64 203 1.0 3.0 0.00 0.00 0.00 78 1012.2
20260510115017 64 203 1.0 4.0 0.00 0.00 0.00 78 1012.2
20260510114037 64 225 1.0 4.0 0.00 0.00 0.00 77 1012.2
20260510113037 64 203 1.0 4.0 0.00 0.00 0.00 77 1012.2
20260510112016 65 225 3.0 6.0 0.00 0.00 0.00 76 1012.1
20260510111016 65 113 2.0 5.0 0.00 0.00 0.00 76 1012.2
20260510110017 65 113 2.0 5.0 0.00 0.00 0.00 75 1012.1
20260510105017 65 203 3.0 6.0 0.00 0.00 0.00 74 1012.0
20260510104017 66 135 2.0 7.0 0.00 0.00 0.00 73 1012.0
20260510103017 66 113 1.0 3.0 0.00 0.00 0.00 72 1011.9
20260510102017 66 135 2.0 5.0 0.00 0.00 0.00 70 1011.8
20260510101017 67 113 2.0 7.0 0.00 0.00 0.00 69 1011.7
20260510100016 67 113 1.0 4.0 0.00 0.00 0.00 68 1011.6
20260510095016 67 113 2.0 7.0 0.00 0.00 0.00 71 1011.5
20260510094016 65 203 2.0 6.0 0.00 0.00 0.00 74 1011.6
20260510093016 64 113 1.0 3.0 0.00 0.00 0.00 75 1011.6
20260510092036 64 203 1.0 3.0 0.00 0.00 0.00 75 1011.7
20260510091018 64 113 1.0 3.0 0.00 0.00 0.00 76 1011.7
20260510090016 64 113 1.0 5.0 0.00 0.00 0.00 76 1011.7
20260510085016 64 135 1.0 5.0 0.00 0.00 0.00 76 1011.6
20260510084016 65 113 2.0 5.0 0.00 0.00 0.00 76 1011.7
20260510083037 65 113 1.0 4.0 0.00 0.00 0.00 77 1011.7
20260510082016 64 113 2.0 5.0 0.00 0.00 0.00 76 1011.7
20260510081016 65 113 2.0 5.0 0.00 0.00 0.00 74 1011.7
20260510080015 65 225 1.0 3.0 0.00 0.00 0.00 72 1011.4
20260510075037 65 113 2.0 4.0 0.00 0.00 0.00 70 1011.6
20260510074016 65 0.0 1.0 0.00 0.00 0.00 69 1011.4
20260510073016 65 225 1.0 3.0 0.00 0.00 0.00 69 1011.5
20260510072016 65 113 1.0 3.0 0.00 0.00 0.00 71 1011.4
20260510071016 64 203 1.0 3.0 0.00 0.00 0.00 73 1011.3
20260510070016 63 0.0 1.0 0.00 0.00 0.00 73 1011.3
20260510065017 62 0.0 0.0 0.00 0.00 0.00 73 1011.3
20260510064016 62 0.0 1.0 0.00 0.00 0.00 72 1011.5
20260510063016 61 0.0 1.0 0.00 0.00 0.00 72 1011.5
20260510062036 61 0.0 2.0 0.00 0.00 0.00 73 1011.3
20260510061016 61 0.0 0.0 0.00 0.00 0.00 75 1011.1
20260510060016 61 0.0 0.0 0.00 0.00 0.00 75 1011.1
20260510055017 60 0.0 0.0 0.00 0.00 0.00 74 1010.9
20260510054016 60 0.0 2.0 0.00 0.00 0.00 73 1010.8
20260510053016 60 0.0 0.0 0.00 0.00 0.00 75 1010.8
20260510052036 60 0.0 0.0 0.00 0.00 0.00 74 1010.7
20260510051016 60 0.0 0.0 0.00 0.00 0.00 74 1010.5
20260510050016 60 0.0 0.0 0.00 0.00 0.00 73 1010.6
20260510045015 60 0.0 0.0 0.00 0.00 0.00 73 1010.7
20260510044015 60 0.0 0.0 0.00 0.00 0.00 72 1010.7
20260510043016 60 0.0 0.0 0.00 0.00 0.00 73 1010.7
20260510042015 60 0.0 2.0 0.00 0.00 0.00 73 1010.6
20260510041016 60 0.0 0.0 0.00 0.00 0.00 72 1010.6
20260510040016 60 0.0 0.0 0.00 0.00 0.00 70 1010.5
20260510035016 60 0.0 0.0 0.00 0.00 0.00 69 1010.6
20260510034016 60 0.0 0.0 0.00 0.00 0.00 69 1010.6
20260510033056 61 0.0 0.0 0.00 0.00 0.00 70 1010.6
20260510032039 61 0.0 1.0 0.00 0.00 0.00 70 1010.5
20260510031018 61 0.0 0.0 0.00 0.00 0.00 69 1010.6
20260510030038 61 0.0 0.0 0.00 0.00 0.00 69 1010.9
20260510025016 61 0.0 1.0 0.00 0.00 0.00 67 1011.1
20260510024057 61 0.0 0.0 0.00 0.00 0.00 67 1011.1
20260510023017 61 0.0 0.0 0.00 0.00 0.00 67 1011.2
20260510022019 61 0.0 0.0 0.00 0.00 0.00 65 1011.0
20260510021019 62 0.0 0.0 0.00 0.00 0.00 66 1011.0
20260510020017 62 0.0 0.0 0.00 0.00 0.00 65 1011.2
20260510015037 62 0.0 1.0 0.00 0.00 0.00 66 1011.1
20260510014037 62 203 1.0 3.0 0.00 0.00 0.00 65 1011.0
20260510013017 62 180 1.0 4.0 0.00 0.00 0.00 61 1010.9
20260510012017 62 0.0 2.0 0.00 0.00 0.00 65 1011.1
20260510011017 62 0.0 2.0 0.00 0.00 0.00 67 1011.3
20260510010037 62 0.0 0.0 0.00 0.00 0.00 63 1011.3
20260510005017 62 0.0 0.0 0.00 0.00 0.00 62 1011.5
20260510004017 62 158 1.0 2.0 0.00 0.00 0.00 63 1011.4
20260510003019 62 248 1.0 4.0 0.00 0.00 0.00 60 1011.0
20260510002019 61 0.0 1.0 0.00 0.00 0.00 71 1011.1
20260510001017 61 0.0 1.0 0.00 0.00 0.00 72 1011.5
20260510000017 61 0.0 0.0 0.00 0.00 0.00 69 1011.6
20260509235018 61 0.0 0.0 0.00 0.00 0.00 67 1012.0
20260509234018 61 0.0 1.0 0.00 0.00 0.00 66 1012.0
20260509233017 61 0.0 1.0 0.00 0.00 0.00 66 1011.8
20260509232017 61 0.0 0.0 0.00 0.00 0.00 67 1011.7